Location: Caltech
(34.1382°N, 118.1253°W)
Time: 00:48:33
(UTC-07:00)

Iridium 62 - Visible Passes

Search period start: 27 May 2015 00:00
Search period end: 06 June 2015 00:00
Orbit: 776 x 779 km, 86.4° (Epoch: 26 May)

Date Brightness Start Highest point End Pass type
(mag) Time Alt. Az. Time Alt. Az. Time Alt. Az.
27 May 6.6 20:48:33 10° SSW 20:53:38 54° W 20:58:44 10° N visible
29 May 8.5 21:23:53 10° WSW 21:27:37 19° WNW 21:31:09 10° NW visible
30 May 7.5 20:49:02 10° SSW 20:53:49 36° W 20:58:35 10° NNW visible
01 Jun 8.8 21:25:38 10° WSW 21:27:58 12° WNW 21:29:59 10° NW visible
02 Jun 8.3 20:49:49 10° SW 20:54:04 24° W 20:58:13 10° NNW visible
05 Jun 8.7 20:51:01 10° WSW 20:54:23 16° WNW 20:57:30 10° NW visible
